Location: Bu�n Treun
(12.1333°N, 108.3167°E)
Time: 15:38:19
(UTC+00:00)

N. Korean satellite - Pass Details

Date: 25 June 2021
Orbit: 451 x 498 km, 97.2° (Epoch: 01 August)

Event Time Altitude Azimuth Distance (km) Brightness Sun altitude
Rises 21:10:25 0° 33° (NNE) 2,572 11.4 -17.0°
Reaches altitude 10° 21:12:54 10° 50° (NE) 1,693 10.6 -16.5°
Maximum altitude 21:15:38 20° 99° (E) 1,195 9.2 -15.9°
Drops below altitude 10° 21:18:22 10° 148° (SSE) 1,693 9.4 -15.3°
Sets 21:20:50 0° 165° (SSE) 2,573 10.1 -14.8°
